This is the latest recevied weather packets stored in our database for station/object KE8RXN. If no packets are shown the sender has not sent any weather packets the latest 10 day(s).
| Time | Temp. | Humidity | Pressure | Rain* | Wind** | Luminosity | Snow |
|---|---|---|---|---|---|---|---|
| 1777993682 | 11.11° C | 41% | 1011.3 hPa | 0 mm | - | 639 W/m² | - |
| 1777993379 | 11.11° C | 44% | 1011.2 hPa | 0 mm | - | 507 W/m² | - |
| 1777993074 | 11.11° C | 43% | 1011.1 hPa | 0 mm | - | 309 W/m² | - |
| 1777992773 | 10.56° C | 45% | 1011.1 hPa | 0 mm | - | 373 W/m² | - |
| 1777992469 | 10.56° C | 44% | 1011 hPa | 0 mm | - | 372 W/m² | - |
| 1777992168 | 10° C | 45% | 1011.3 hPa | 0 mm | - | 346 W/m² | - |
| 1777991864 | 10.56° C | 45% | 1011.2 hPa | 0 mm | - | 269 W/m² | - |
| 1777991562 | 10.56° C | 47% | 1011.2 hPa | 0 mm | - | 511 W/m² | - |
| 1777991259 | 10° C | 50% | 1011.1 hPa | 0 mm | - | 528 W/m² | - |
| 1777990956 | 9.44° C | 52% | 1011.1 hPa | 0 mm | - | 296 W/m² | - |
| 1777990654 | 9.44° C | 53% | 1011 hPa | 0 mm | - | 238 W/m² | - |
| 1777990351 | 9.44° C | 55% | 1010.8 hPa | 0 mm | - | 128 W/m² | - |
| 1777990047 | 9.44° C | 55% | 1010.8 hPa | 0 mm | - | 144 W/m² | - |
| 1777989744 | 9.44° C | 56% | 1010.9 hPa | 0 mm | - | 149 W/m² | - |
| 1777989440 | 10° C | 55% | 1010.9 hPa | 0 mm | - | 156 W/m² | - |
| 1777989137 | 10° C | 57% | 1010.8 hPa | 0 mm | - | 241 W/m² | - |
| 1777988833 | 9.44° C | 57% | 1010.6 hPa | 0 mm | - | 350 W/m² | - |
| 1777988530 | 10° C | 59% | 1010.6 hPa | 0 mm | - | 199 W/m² | - |
| 1777988227 | 10° C | 60% | 1010.4 hPa | 0 mm | - | 230 W/m² | - |
| 1777987923 | 10° C | 61% | 1011.1 hPa | 0 mm | - | 248 W/m² | - |
| 1777987619 | 9.44° C | 62% | 1010.7 hPa | 0 mm | - | 331 W/m² | - |
| 1777987317 | 8.89° C | 65% | 1011 hPa | 0 mm | - | 167 W/m² | - |
| 1777987014 | 8.89° C | 70% | 1010.7 hPa | 0 mm | - | 177 W/m² | - |
| 1777986711 | 8.89° C | 69% | 1010.4 hPa | 0 mm | - | 119 W/m² | - |
| 1777986409 | 8.89° C | 68% | 1010.5 hPa | 0 mm | - | 136 W/m² | - |
* Rain latest hour (hover to see other rain measurements)
** Current wind speed in m/s (hover to see current wind gust speed)